When you browse on this site, cookies collect data to enhance your experience and personalize the content and advertising you see.
Visit our Privacy Policy to learn more. By continuing to use the site, you agree to this use of cookies and data.
  • En España
  • Lista de países
  • Para 7 días
  • Temperatura del agua
  • Mapa Satelital
  • El tiempo en el mapa
  • Informadores
  • user-avatar
    Iniciar sesión

    Tiempo cada hora Luanda

    Hoy, 17 Diciembre, Lunes

    Tiempo Temperatura Precipitaciones Viento Presión Humedad
    00:00 +25°C° 0 mm 2 mps 755 mmHg 87%
    01:00 +25°C° 0 mm 2 mps 755 mmHg 88%
    02:00 +25°C° 0 mm 2 mps 755 mmHg 89%
    03:00 +25°C° 0 mm 1 mps 755 mmHg 89%
    04:00 +25°C° 0 mm 1 mps 755 mmHg 89%
    05:00 +26°C° 0 mm 1 mps 755 mmHg 88%
    06:00 +26°C° 0 mm 1 mps 756 mmHg 87%
    07:00 +26°C° 0 mm 1 mps 756 mmHg 84%
    08:00 +28°C° 0 mm 1 mps 756 mmHg 77%
    09:00 +29°C° 0 mm 1 mps 756 mmHg 71%
    10:00 +30°C° 0 mm 1 mps 755 mmHg 64%
    11:00 +32°C° 0 mm 1 mps 755 mmHg 59%
    12:00 +34°C° 0 mm 2 mps 754 mmHg 54%
    13:00 +35°C° 0 mm 3 mps 753 mmHg 49%
    14:00 +35°C° 0 mm 3 mps 753 mmHg 51%
    15:00 +34°C° 0 mm 3 mps 752 mmHg 54%
    16:00 +33°C° 0 mm 4 mps 752 mmHg 56%
    17:00 +31°C° 0 mm 3 mps 752 mmHg 61%
    18:00 +29°C° 0 mm 3 mps 753 mmHg 67%
    19:00 +28°C° 0 mm 3 mps 753 mmHg 72%
    20:00 +28°C° 0 mm 3 mps 754 mmHg 74%
    21:00 +27°C° 0 mm 2 mps 754 mmHg 76%
    22:00 +27°C° 0 mm 2 mps 755 mmHg 78%
    23:00 +27°C° 0 mm 2 mps 755 mmHg 78%

    Mañana, 18 Diciembre, Martes

    Tiempo Temperatura Precipitaciones Viento Presión Humedad
    00:00 +27°C° 0 mm 2 mps 755 mmHg 78%
    01:00 +27°C° 0 mm 2 mps 755 mmHg 77%
    02:00 +27°C° 0 mm 2 mps 755 mmHg 79%
    03:00 +27°C° 0 mm 2 mps 755 mmHg 80%
    04:00 +26°C° 0 mm 2 mps 755 mmHg 81%
    05:00 +26°C° 0.2 mm 1 mps 755 mmHg 82%
    06:00 +26°C° 0.2 mm 1 mps 755 mmHg 83%
    07:00 +24°C° 0.2 mm 0 mps 756 mmHg 83%
    08:00 +27°C° 0.2 mm 1 mps 756 mmHg 82%
    09:00 +27°C° 0.2 mm 1 mps 756 mmHg 81%
    10:00 +27°C° 0.2 mm 1 mps 756 mmHg 79%
    11:00 +28°C° 0.4 mm 1 mps 756 mmHg 79%
    12:00 +26°C° 0.4 mm 0 mps 755 mmHg 79%
    13:00 +26°C° 0.4 mm 0 mps 755 mmHg 79%
    14:00 +28°C° 0.2 mm 1 mps 754 mmHg 77%
    15:00 +29°C° 0.2 mm 2 mps 754 mmHg 74%
    16:00 +29°C° 0.2 mm 2 mps 753 mmHg 71%
    17:00 +29°C° 0 mm 2 mps 754 mmHg 75%
    18:00 +28°C° 0 mm 2 mps 754 mmHg 78%
    19:00 +27°C° 0 mm 2 mps 754 mmHg 81%
    20:00 +27°C° 0 mm 3 mps 755 mmHg 83%
    21:00 +27°C° 0 mm 3 mps 755 mmHg 85%
    22:00 +26°C° 0 mm 3 mps 756 mmHg 86%
    23:00 +26°C° 0 mm 3 mps 755 mmHg 87%

    Pasado mañana, 19 Diciembre, Miércoles

    Tiempo Temperatura Precipitaciones Viento Presión Humedad
    00:00 +26°C° 0 mm 3 mps 755 mmHg 87%
    01:00 +26°C° 0 mm 3 mps 754 mmHg 87%
    02:00 +26°C° 0 mm 3 mps 754 mmHg 88%
    03:00 +26°C° 0 mm 3 mps 754 mmHg 88%
    04:00 +26°C° 0 mm 3 mps 754 mmHg 88%
    05:00 +26°C° 0 mm 3 mps 754 mmHg 88%
    06:00 +26°C° 0 mm 2 mps 755 mmHg 87%
    07:00 +26°C° 0 mm 2 mps 755 mmHg 87%
    08:00 +27°C° 0 mm 2 mps 755 mmHg 80%
    09:00 +29°C° 0 mm 2 mps 756 mmHg 73%
    10:00 +30°C° 0 mm 2 mps 756 mmHg 66%
    11:00 +31°C° 0 mm 2 mps 755 mmHg 63%
    12:00 +33°C° 0 mm 3 mps 755 mmHg 59%
    13:00 +33°C° 0 mm 3 mps 754 mmHg 56%
    14:00 +33°C° 0 mm 3 mps 754 mmHg 58%
    15:00 +33°C° 0 mm 4 mps 753 mmHg 59%
    16:00 +32°C° 0 mm 5 mps 753 mmHg 61%
    17:00 +30°C° 0 mm 4 mps 753 mmHg 66%
    18:00 +29°C° 0 mm 4 mps 753 mmHg 71%
    19:00 +28°C° 0 mm 4 mps 754 mmHg 76%
    20:00 +28°C° 0 mm 3 mps 754 mmHg 78%
    21:00 +27°C° 0 mm 3 mps 755 mmHg 80%
    22:00 +27°C° 0 mm 2 mps 755 mmHg 81%
    23:00 +27°C° 0 mm 2 mps 755 mmHg 83%

    20 Diciembre, Jueves

    Tiempo Temperatura Precipitaciones Viento Presión Humedad
    00:00 +26°C° 0 mm 2 mps 755 mmHg 85%
    01:00 +26°C° 0 mm 2 mps 754 mmHg 86%
    02:00 +26°C° 0 mm 2 mps 754 mmHg 87%
    03:00 +26°C° 0 mm 2 mps 754 mmHg 88%
    04:00 +25°C° 0 mm 2 mps 753 mmHg 89%
    05:00 +26°C° 0 mm 3 mps 754 mmHg 88%
    06:00 +26°C° 0 mm 3 mps 754 mmHg 87%
    07:00 +26°C° 0 mm 3 mps 755 mmHg 86%
    08:00 +28°C° 0 mm 2 mps 755 mmHg 77%
    09:00 +30°C° 0 mm 2 mps 755 mmHg 68%
    10:00 +31°C° 0 mm 1 mps 756 mmHg 59%
    11:00 +32°C° 0 mm 2 mps 755 mmHg 56%
    12:00 +34°C° 0 mm 2 mps 754 mmHg 53%
    13:00 +34°C° 0 mm 3 mps 754 mmHg 51%
    14:00 +34°C° 0 mm 4 mps 753 mmHg 54%
    15:00 +33°C° 0 mm 4 mps 753 mmHg 58%
    16:00 +32°C° 0 mm 4 mps 752 mmHg 62%
    17:00 +30°C° 0 mm 4 mps 753 mmHg 67%
    18:00 +29°C° 0 mm 4 mps 753 mmHg 72%
    19:00 +27°C° 0 mm 3 mps 754 mmHg 77%
    20:00 +27°C° 0 mm 3 mps 754 mmHg 79%
    21:00 +27°C° 0 mm 3 mps 755 mmHg 81%
    22:00 +26°C° 0 mm 2 mps 755 mmHg 83%
    23:00 +26°C° 0 mm 3 mps 755 mmHg 84%

    21 Diciembre, Viernes

    Tiempo Temperatura Precipitaciones Viento Presión Humedad
    00:00 +26°C° 0 mm 3 mps 755 mmHg 86%
    01:00 +26°C° 0 mm 3 mps 754 mmHg 87%
    02:00 +25°C° 0 mm 3 mps 754 mmHg 88%
    03:00 +25°C° 0 mm 3 mps 754 mmHg 88%
    04:00 +25°C° 0 mm 3 mps 754 mmHg 89%
    05:00 +26°C° 0 mm 3 mps 754 mmHg 87%
    06:00 +26°C° 0 mm 3 mps 755 mmHg 85%
    07:00 +26°C° 0 mm 3 mps 755 mmHg 83%
    08:00 +28°C° 0 mm 3 mps 755 mmHg 76%
    09:00 +29°C° 0 mm 3 mps 755 mmHg 69%
    10:00 +31°C° 0 mm 3 mps 755 mmHg 62%
    11:00 +31°C° 0 mm 3 mps 755 mmHg 58%
    12:00 +33°C° 0 mm 3 mps 754 mmHg 54%
    13:00 +34°C° 0 mm 3 mps 753 mmHg 50%
    14:00 +34°C° 0 mm 4 mps 753 mmHg 53%
    15:00 +33°C° 0 mm 4 mps 752 mmHg 56%
    16:00 +32°C° 0 mm 5 mps 752 mmHg 58%
    17:00 +30°C° 0 mm 4 mps 752 mmHg 65%
    18:00 +28°C° 0 mm 4 mps 753 mmHg 71%
    19:00 +27°C° 0 mm 3 mps 753 mmHg 77%
    20:00 +27°C° 0 mm 3 mps 753 mmHg 79%
    21:00 +26°C° 0 mm 3 mps 754 mmHg 81%
    22:00 +26°C° 0 mm 2 mps 754 mmHg 82%
    23:00 +26°C° 0 mm 2 mps 754 mmHg 84%

    22 Diciembre, Sábado

    Tiempo Temperatura Precipitaciones Viento Presión Humedad
    00:00 +25°C° 0 mm 2 mps 754 mmHg 85%
    01:00 +25°C° 0 mm 2 mps 753 mmHg 86%
    02:00 +25°C° 0 mm 2 mps 753 mmHg 87%
    03:00 +25°C° 0 mm 2 mps 753 mmHg 87%
    04:00 +25°C° 0 mm 2 mps 753 mmHg 87%
    05:00 +25°C° 0 mm 2 mps 754 mmHg 86%
    06:00 +25°C° 0 mm 2 mps 754 mmHg 85%
    07:00 +26°C° 0 mm 2 mps 755 mmHg 83%
    08:00 +27°C° 0 mm 2 mps 755 mmHg 77%
    09:00 +28°C° 0 mm 1 mps 755 mmHg 70%
    10:00 +30°C° 0 mm 1 mps 755 mmHg 63%
    11:00 +31°C° 0 mm 2 mps 754 mmHg 58%
    12:00 +32°C° 0 mm 2 mps 754 mmHg 54%
    13:00 +34°C° 0 mm 3 mps 753 mmHg 49%
    14:00 +33°C° 0 mm 3 mps 752 mmHg 52%
    15:00 +33°C° 0 mm 4 mps 752 mmHg 55%
    16:00 +32°C° 0 mm 4 mps 751 mmHg 58%
    17:00 +30°C° 0 mm 4 mps 751 mmHg 64%
    18:00 +28°C° 0 mm 4 mps 752 mmHg 70%
    19:00 +27°C° 0 mm 3 mps 752 mmHg 76%
    20:00 +26°C° 0 mm 3 mps 753 mmHg 77%
    21:00 +26°C° 0 mm 3 mps 753 mmHg 79%
    22:00 +26°C° 0 mm 3 mps 753 mmHg 81%
    23:00 +26°C° 0 mm 3 mps 753 mmHg 81%
    Mostrar más